Location: Bun Machan
(52.1403°N, 7.3744°W)
Time: 02:55:43
(UTC+00:00)

X-37B - Pass Details

Date: 30 June 2021
Orbit: 383 x 392 km, 45.0° (Epoch: 01 July)

Event Time Altitude Azimuth Distance (km) Brightness Sun altitude
Rises 21:40:55 0° 256° (WSW) 2,259 4.8 -5.9°
Reaches altitude 10° 21:43:18 10° 239° (WSW) 1,404 3.5 -6.1°
Maximum altitude 21:45:44 20° 189° (S) 942 2.2 -6.3°
Drops below altitude 10° 21:48:09 10° 139° (SE) 1,401 2.7 -6.6°
Enters shadow 21:48:26 - 136° (SE) 1,489 2.9 -6.6°
